Regional Weather Roundup
Issued by NWS Northern Indiana

Home | Current Version | Previous Version | Graphics & Text | Print | Product List | Glossary On
Versions: 1 2 3 4 5 6 7 8 9 10 11 12 13 14 15 16 17 18 19 20 21 22 23 24 25 26 27 28 29 30 31 32 33 34 35 36 37 38 39 40 41 42 43 44 45 46 47 48 49 50
000
ASUS43 KIWX 291400
RWRIWX

KIWX WEATHER ROUNDUP
NATIONAL WEATHER SERVICE NORTHERN INDIANA
1000 AM EDT SAT AUG 29 2015

NOTE: "FAIR" INDICATES FEW OR NO CLOUDS BELOW 12,000 FEET WITH NO
SIGNIFICANT WEATHER AND/OR OBSTRUCTIONS TO VISIBILITY.

* THESE STATIONS ARE NOT UNDER NWS QUALITY CONTROL. THEY ALSO MAY NOT
  REPORT WEATHER SUCH AS PRECIPITATION OR FOG.

INZ001>027-291500-
NORTHERN INDIANA

CITY           SKY/WX    TMP DP  RH WIND       PRES   REMARKS
GARY*          CLOUDY    66  63  88 SE8       30.07S
KNOX*          CLOUDY    66  61  82 S3        30.08S
SOUTH BEND     LGT RAIN  66  60  81 SE6       30.09F
ELKHART*       CLOUDY    66  61  82 SE5       30.10F
GOSHEN         PTSUNNY   67  61  81 E5        30.10F
MONTICELLO*    CLOUDY    68  63  84 S5        30.06F
WARSAW*        PTSUNNY   70  61  73 CALM      30.10S
ANGOLA*        MOSUNNY   68  61  77 SE3       30.11F
FORT WAYNE     PTSUNNY   69  62  78 CALM      30.11F
PERU/GRISSOM   PTSUNNY   74  64  70 S9        30.07F

$$
INZ028>050-291500-
CENTRAL INDIANA

CITY           SKY/WX    TMP DP  RH WIND       PRES   REMARKS
LAFAYETTE      CLOUDY    71  62  73 SW3       30.06F
KOKOMO*        MOSUNNY   73  63  68 S8        30.09F
MUNCIE*        MOSUNNY   71  62  73 SW8       30.11S
INDIANAPOLIS   PTSUNNY   71  62  73 S7        30.09R

$$
MIZ043>046-050>051-056>058-064>065-071>073-077>080-291500-
SOUTHWEST LOWER MICHIGAN

CITY           SKY/WX    TMP DP  RH WIND       PRES   REMARKS
BATTLE CREEK   LGT RAIN  64  60  87 CALM      30.12S
BENTON HARBOR  LGT RAIN  63  61  93 CALM      30.10S FOG
COLDWATER*     CLOUDY    66  62  85 SE3       30.12S
HILLSDALE*     CLOUDY    68  63  84 S3        30.13F
HOLLAND        LGT RAIN  64  62  93 SE3       30.11F FOG
GRAND RAPIDS   RAIN      63  62  97 E3        30.12S FOG
KALAMAZOO      RAIN      63  61  93 CALM      30.12S FOG
STURGIS*       CLOUDY    66  61  82 SE3       30.10F
THREE RIVERS*  LGT RAIN  65  61  85 CALM      30.10F

$$
OHZ001>008-015>018-024>025-291500-
NORTHWEST OHIO

CITY           SKY/WX    TMP DP  RH WIND       PRES   REMARKS
DEFIANCE       CLOUDY    69  59  70 E3        30.12F
FINDLAY        CLOUDY    69  61  75 E6        30.12F
TOLEDO EXPRESS CLOUDY    66  60  81 SE3       30.13F
TOLEDO METCALF PTSUNNY   69  59  70 SE5       30.14F
LIMA           CLOUDY    68  59  73 S9        30.13S

$$
AND FOR LAKE MICHIGAN COASTAL AND OPEN LAKE BUOY OBSERVATIONS

STATION/POSITION TEMP    WIND        PRES    VSBY  WAVE
                 AIR SEA DIR/SP/G                  HT/PER
                 (F)     (DEG/KT/KT) (MB)    (MI)  (FT/S)
MICHIGAN CITY     65     110/  8/  9   N/A
BURNS HARBOR      66     140/  9/ 13 1018.6
SAINT JOSEPH      63      CALM  /  2 1019.6R
SOUTH LAKE BUOY   66 68  170/  4/  6 1018.1F         1/ 3
4 MI NW BRIDGMAN  66 70  140/  6/  8   N/A           1
MICHIGAN CITY     66 70  170/ 10/ 12   N/A           1

$$
&&



USA.gov is the U.S. government's official web portal to all federal, state and local government web resources and services.